Regional Weather Roundup
Issued by NWS

Home | Current Version | Previous Version | Text Only | Print | Product List | Glossary On
Versions: 1 2 3 4 5 6 7 8 9 10 11 12 13 14 15 16 17 18 19 20 21 22 23 24 25 26 27 28 29 30 31 32 33 34 35 36 37 38 39 40 41 42 43 44 45 46 47 48 49 50
000
ASUS43 KMPX 281701
RWRMN
WEATHER ROUNDUP FOR MINNESOTA
NATIONAL WEATHER SERVICE TWIN CITIES/CHANHASSEN MN
1200 PM CDT SAT MAY 28 2016


NOTE: "FAIR" INDICATES FEW OR NO CLOUDS BELOW 12,000 FEET WITH NO
SIGNIFICANT WEATHER AND/OR OBSTRUCTIONS TO VISIBILITY. N/A MEANS
CURRENT SKY AND/OR WEATHER CONDITIONS ARE NOT AVAILABLE.

MNZ060>063-068>070-281800-
   Twin Cities Metro

CITY           SKY/WX    TMP DP  RH WIND       PRES   REMARKS
TWIN CITIES    CLOUDY    66  59  78 N3        29.77R
ST PAUL        CLOUDY    66  60  81 CALM      29.77S
CRYSTAL        CLOUDY    64  57  78 CALM      29.76S
BLAINE         CLOUDY    64  61  88 CALM      29.77S
EDEN PRAIRIE   LGT RAIN  65  59  81 W5        29.77R
SOUTH ST PAUL  CLOUDY    67  61  81 CALM      29.77R
LAKE ELMO      CLOUDY    64  61  88 NW3       29.78S
$$
MNZ001>005-007-008-013>017-022>024-027-028-281800-
   Northwest Minnesota

CITY           SKY/WX    TMP DP  RH WIND       PRES   REMARKS
BEMIDJI        CLOUDY    58  56  92 N7        29.80F
HALLOCK        CLOUDY    72  54  53 E7        29.85S
ROSEAU         CLOUDY    66  61  82 E9        29.86F
WARROAD        CLOUDY    64  61  88 NE10      29.87F
THIEF RVR FALL CLOUDY    64  54  68 NE14G20   29.85F
CROOKSTON      PTSUNNY   68  55  64 E9        29.84S
FOSSTON        CLOUDY    59  55  88 NE10      29.82S FOG
DETROIT LAKES  CLOUDY    61  54  77 N6        29.82S
MOORHEAD       PTSUNNY   66  57  72 N14       29.81F
PARK RAPIDS    CLOUDY    62  53  72 N8        29.79S
MAHNOMEN       CLOUDY    61  56  84 N12       29.81F
$$
MNZ006-009>011-018-025>026-281800-
   North Central Minnesota

CITY           SKY/WX    TMP DP  RH WIND       PRES   REMARKS
BAUDETTE       LGT RAIN  62  57  83 NE8       29.84F
FLAG ISLAND    CLOUDY    61  57  88 N16       29.87S
INTL FALLS     FOG       59  56  89 NE9       29.83S VSB 1
WASKISH        CLOUDY    59  57  94 NE10G16   29.83R
BIG FORK       CLOUDY    61  57  88 NE6       29.80S
LONGVILLE      CLOUDY    61  55  82 CALM      29.79R
GRAND RAPIDS   CLOUDY    60  57  89 NW6       29.79S
CRANE LAKE     CLOUDY    57  55  94 CALM      29.83S FOG
ORR            CLOUDY    59  55  88 CALM      29.77F FOG
COOK           CLOUDY    61  57  88 NE3       29.79S
WALKER         CLOUDY    58  56  93 N3        29.79S
$$
MNZ012-019>021-037-281800-
   Northeast Minnesota

CITY           SKY/WX    TMP DP  RH WIND       PRES   REMARKS
DULUTH         FOG       47  46  97 CALM      29.80R VSB 1/8
ELY            CLOUDY    59  57  94 NE6       29.79S
HIBBING        CLOUDY    59  57  93 NE3       29.77F
EVELETH        CLOUDY    59  57  94 E6        29.79S
DULUTH HARBOR  CLOUDY    48  46  93 CALM      29.81S
TWO HARBORS    HAZE      52  46  82 E3        29.78F VSB 1/4
SILVER BAY     FOG       52  52 100 NE6       29.78F VSB 3/4
GRAND MARAIS     N/A     47  46  97 NE10G20   29.79R
G MARAIS ARPRT CLOUDY    61  55  82 NE6       29.81R
$$
MNZ029>031-032-039>041-046>048-054>057-064-281800-
   West Central Minnesota

CITY           SKY/WX    TMP DP  RH WIND       PRES   REMARKS
FERGUS FALLS   CLOUDY    66  55  68 N7        29.76S
WHEATON        PTSUNNY   66  57  72 NW7       29.81S
MORRIS         CLOUDY    63  57  82 CALM      29.79S
ALEXANDRIA     CLOUDY    63  55  75 N3        29.80S
ELBOW LAKE     CLOUDY    65  55  70 NW7       29.80R
WADENA         CLOUDY    61  54  77 N5        29.80R
GLENWOOD       CLOUDY    63  57  82 CALM      29.81R
APPLETON       LGT RAIN  63  55  77 CALM      29.79S
BENSON         CLOUDY    63  55  77 CALM      29.80R
ORTONVILLE     DRIZZLE   63  55  77 NW3       29.80S
MADISON        DRIZZLE   61  57  88 NE5       29.79F
WILLMAR        RAIN      61  57  88 CALM      29.81F
$$
MNZ033>034-036-042>043-049>051-058-059-281800-
   Central Minnesota

CITY           SKY/WX    TMP DP  RH WIND       PRES   REMARKS
ST CLOUD       CLOUDY    60  57  89 S5        29.79R
SAUK CENTRE    CLOUDY    61  56  82 CALM      29.80R
PAYNESVILLE    CLOUDY    60  58  91 CALM      29.81R
AITKIN         CLOUDY    61  54  77 CALM      29.78R
PINE RIVER     CLOUDY    59  55  88 N5        29.83R
BRAINERD       CLOUDY    59  56  89 NE3       29.80R
STAPLES        CLOUDY    59  55  88 NW6       29.79R
LONG PRAIRIE   CLOUDY    59  54  82 N3        29.80R
LITTLE FALLS   CLOUDY    63  54  72 CALM      29.79R
LITCHFIELD     DRIZZLE   61  59  94 CALM      29.80F
BUFFALO        CLOUDY    59  56  88 CALM      29.81R
MAPLE LAKE     CLOUDY    60  58  94 CALM      29.80S
HUTCHINSON     RAIN      61  59  94 NE3       29.80F
$$
MNZ037-044-045-052-053-281800-
   East Central Minnesota

CITY           SKY/WX    TMP DP  RH WIND       PRES   REMARKS
PRINCETON      CLOUDY    61  57  88 CALM      29.79S
MORA           CLOUDY    55  52  88 SE3       29.81R
CAMBRIDGE      CLOUDY    64  54  68 CALM      29.77S
RUSH CITY      CLOUDY    60  56  85 CALM      29.78S
MOOSE LAKE     CLOUDY    55  52  88 CALM      29.77F
HINCKLEY       CLOUDY    59  55  88 CALM      29.79S
CLOQUET        FOG       54  52  94 SE6       29.79S VSB 3/4
MCGREGOR       CLOUDY    61  55  82 E3        29.79R
$$
MNZ071>073-080-081-089-090-097-098-281800-
   Southwest Minnesota

CITY           SKY/WX    TMP DP  RH WIND       PRES   REMARKS
MONTEVIDEO     RAIN      61  59  94 NE6       29.80F
GRANITE FALLS  LGT RAIN  61  60  94 N7        29.81S
CANBY          RAIN      62  60  93 N5        29.80S
MARSHALL       RAIN      60  59  96 N5        29.80R
REDWOOD FALLS  RAIN      60  57  89 NE5       29.79R FOG
OLIVIA         LGT RAIN  59  57  94 NE7       29.77F
PIPESTONE      LGT RAIN  61  61 100 NE8       29.78S
WINDOM         CLOUDY    63  61  94 N3        29.78S
WORTHINGTON    LGT RAIN  63  60  90 N9        29.78S
JACKSON        CLOUDY    68  57  68 W7        29.78R
TRACY          HVY RAIN  60  60  99 E5        29.80R
SLAYTON        RAIN      61  61 100 NE3       29.80S
$$
MNZ065>067-074>077-082>085-091>093-281800-
   South Central Minnesota

CITY           SKY/WX    TMP DP  RH WIND       PRES   REMARKS
MANKATO        CLOUDY    66  63  88 NE8       29.76S
NEW ULM        RAIN      61  61 100 NE9       29.77S
ST JAMES       LGT RAIN  59  57  94 NW12      29.78R
FAIRMONT       CLOUDY    64  59  82 S8        29.78R
GLENCOE        HVY RAIN  62  61  97 NW3       29.78F
FARIBAULT      CLOUDY    70  63  78 SE6       29.77S
OWATONNA       DRIZZLE   68  63  83 S8        29.77S
WASECA         LGT RAIN  66  61  82 SE10      29.77S
ALBERT LEA     RAIN      66  63  88 SW8       29.78R
$$
MNZ078>079-086>088-094>096-281800-
   Southeast Minnesota

CITY           SKY/WX    TMP DP  RH WIND       PRES   REMARKS
ROCHESTER      LGT RAIN  67  65  93 S10       29.78S
RED WING       CLOUDY    70  63  78 SE5       29.75R
STANTON        LGT RAIN  69  63  80 S5        29.76R
DODGE CENTER   CLOUDY    70  64  83 S8        29.78S
WINONA         CLOUDY    70  66  88 CALM      29.79R FOG
AUSTIN         PTSUNNY   68  63  83 SW12      29.78S
PRESTON        CLOUDY    70  61  73 S17       29.80R
$$
ABBREVIATIONS USED IN REMARKS
   TC - TEMPERATURES IN CELSIUS
  WCI - WIND CHILL INDEX
   HX - HEAT INDEX
  VSB - VISIBILITY
$$




USA.gov is the U.S. government's official web portal to all federal, state and local government web resources and services.